Tucson Davis Monthan, AZ

7:42 PM MST on September 20, 2017 (GMT -0700)
Davis-Monthan Air Force Base

Weather History for KDMA - September, 2013

Change the Weather History Date:

Sunday, September 8, 2013

  Actual Average Record
Temperature  
Mean Temperature 78 °F -  
Max Temperature 84 °F 97 °F 105 °F (1990)
Min Temperature 72 °F 70 °F 61 °F (1950)
Cooling Degree Days 13    
Growing Degree Days 28 (Base 50)    
Moisture  
Dew Point 65 °F    
Average Humidity 68    
Maximum Humidity 82    
Minimum Humidity 45    
Precipitation  
Precipitation 0.04 in - - ()
Sea Level Pressure  
Sea Level Pressure 29.85 in    
Wind  
Wind Speed 9 mph (SE)    
Max Wind Speed 18 mph    
Max Gust Speed 16 mph    
Visibility 10 miles    
Events Rain    
Averages and records for this station are not official NWS values.
T = Trace of Precipitation, MM = Missing Value Source: NWS Daily Summary

Daily Weather History Graph

Daily Weather History Graph

Search for Another Location

Airport or City:

Trip Planner

Search our weather history database for the weather conditions in past years. The results will help you decide how hot, cold, wet, or windy it might be!

Date:

Astronomy

Sep. 08, 2013 Rise Set
Actual Time 6:03 AM MST 6:38 PM MST
Civil Twilight 5:38 AM MST 7:02 PM MST
Nautical Twilight 5:09 AM MST 7:31 PM MST
Astronomical Twilight 4:39 AM MST 8:01 PM MST
Moon 9:09 AM MST (9/8) 8:32 PM MST (9/8)
Length of Visible Light 13h 24m
Length of Day
12h 35m
Waxing Crescent, 12% of the Moon is Illuminated
Sep 8
Waxing Crescent
Sep 12
First Quarter
Sep 19
Full
Sep 26
Last Quarter
Oct 4
New

Hourly Weather History & Observations

Time (MST) Temp. Heat Index Dew Point Humidity Pressure Visibility Wind Dir Wind Speed Gust Speed Precip Events Conditions
12:19 AM 75.2 °F - 64.4 °F 69% 29.96 in 10.0 mi ESE 12.7 mph - N/A   Mostly Cloudy
12:58 AM 75.2 °F - 64.2 °F 69% 29.83 in 10.0 mi East 8.1 mph - 0.00 in   Mostly Cloudy
1:30 AM 75.2 °F - 62.6 °F 65% 29.96 in 10.0 mi ESE 11.5 mph - N/A Rain Light Rain
1:58 AM 73.2 °F - 65.8 °F 78% 29.83 in 10.0 mi ESE 11.5 mph - 0.01 in Rain Light Rain
2:12 AM 73.4 °F - 64.4 °F 73% 29.94 in 10.0 mi ESE 10.4 mph - N/A   Clear
2:19 AM 73.4 °F - 64.4 °F 73% 29.94 in 10.0 mi ESE 12.7 mph - N/A   Light Drizzle
2:36 AM 73.4 °F - 64.4 °F 73% 29.94 in 10.0 mi East 12.7 mph - N/A   Partly Cloudy
2:58 AM 72.9 °F - 64.6 °F 75% 29.81 in 10.0 mi East 11.5 mph - 0.00 in   Scattered Clouds
3:58 AM 73.2 °F - 63.9 °F 72% 29.81 in 10.0 mi SE 6.9 mph - N/A   Mostly Cloudy
4:44 AM 73.4 °F - 62.6 °F 69% 29.93 in 10.0 mi ESE 10.4 mph - N/A Rain Light Rain
4:58 AM 73.6 °F - 63.1 °F 70% 29.81 in 10.0 mi ESE 10.4 mph - 0.00 in   Light Drizzle
5:00 AM 73.4 °F - 62.6 °F 69% 29.93 in 10.0 mi ESE 10.4 mph - N/A   Mostly Cloudy
5:58 AM 73.8 °F - 63.1 °F 69% 29.81 in 10.0 mi East 9.2 mph - 0.00 in   Overcast
6:58 AM 75.0 °F - 62.8 °F 66% 29.83 in 10.0 mi East 10.4 mph - N/A   Overcast
7:58 AM 75.7 °F - 62.4 °F 63% 29.84 in 10.0 mi ESE 13.8 mph - N/A   Overcast
8:58 AM 78.1 °F - 62.4 °F 58% 29.83 in 10.0 mi SE 5.8 mph - N/A   Partly Cloudy
9:58 AM 79.5 °F - 62.2 °F 55% 29.83 in 10.0 mi SE 11.5 mph - N/A   Partly Cloudy
10:58 AM 83.8 °F 84.0 °F 60.3 °F 45% 29.82 in 10.0 mi SSE 6.9 mph - N/A   Partly Cloudy
11:58 AM 84.0 °F 84.5 °F 61.5 °F 47% 29.81 in 10.0 mi NW 9.2 mph - N/A   Partly Cloudy
12:33 PM 82.4 °F 83.9 °F 64.4 °F 54% 29.93 in 10.0 mi WNW 12.7 mph - N/A   Light Drizzle
12:54 PM 80.6 °F 82.7 °F 66.2 °F 61% 29.92 in 10.0 mi WNW 10.4 mph - N/A   Partly Cloudy
12:58 PM 80.2 °F 82.3 °F 66.0 °F 62% 29.80 in 10.0 mi WNW 10.4 mph - 0.00 in   Partly Cloudy
1:32 PM 82.4 °F 83.9 °F 64.4 °F 54% 29.90 in 10.0 mi WNW 6.9 mph - N/A   Light Drizzle
1:44 PM 82.4 °F 83.9 °F 64.4 °F 54% 29.89 in 10.0 mi West 5.8 mph - N/A   Partly Cloudy
1:58 PM 81.9 °F 83.2 °F 63.9 °F 54% 29.77 in 10.0 mi West 6.9 mph - 0.00 in   Clear
2:08 PM 82.4 °F 83.9 °F 64.4 °F 54% 29.88 in 10.0 mi West 4.6 mph - N/A   Light Drizzle
2:30 PM 78.8 °F - 68.0 °F 69% 29.88 in 10.0 mi West 12.7 mph 16.1 mph N/A   Clear
2:58 PM 78.6 °F - 67.5 °F 68% 29.76 in 10.0 mi West 13.8 mph - 0.00 in   Partly Cloudy
3:58 PM 79.3 °F - 66.4 °F 64% 29.75 in 10.0 mi West 8.1 mph - N/A   Clear
4:24 PM 78.8 °F - 66.2 °F 65% 29.86 in 10.0 mi West 8.1 mph - N/A   Light Drizzle
4:34 PM 78.8 °F - 64.4 °F 61% 29.86 in 10.0 mi West 6.9 mph - N/A   Clear
4:58 PM 77.7 °F - 66.2 °F 68% 29.75 in 10.0 mi WSW 10.4 mph - 0.00 in   Partly Cloudy
5:58 PM 76.3 °F - 67.5 °F 74% 29.75 in 10.0 mi Calm Calm - N/A   Partly Cloudy
6:32 PM 77.0 °F - 66.2 °F 69% 29.87 in 10.0 mi NNW 2.3 mph - N/A Rain Light Rain
6:50 PM 77.0 °F - 66.2 °F 69% 29.88 in 10.0 mi Calm Calm - N/A   Partly Cloudy
6:58 PM 77.4 °F - 66.0 °F 68% 29.76 in 10.0 mi NE 3.5 mph - 0.00 in   Scattered Clouds
7:13 PM 77.0 °F - 66.2 °F 69% 29.88 in 10.0 mi NE 1.2 mph - N/A   Light Drizzle
7:22 PM 77.0 °F - 66.2 °F 69% 29.88 in 10.0 mi ESE 2.3 mph - N/A   Mostly Cloudy
7:41 PM 77.0 °F - 68.0 °F 74% 29.88 in 10.0 mi SSE 3.5 mph - N/A Rain Light Rain
7:58 PM 76.6 °F - 67.6 °F 74% 29.77 in 10.0 mi South 2.3 mph - 0.00 in   Light Drizzle
7:59 PM 77.0 °F - 68.0 °F 74% 29.89 in 10.0 mi South 2.3 mph - N/A   Partly Cloudy
8:09 PM 77.0 °F - 66.2 °F 69% 29.89 in 10.0 mi South 5.8 mph - N/A   Light Drizzle
8:58 PM 72.9 °F - 66.9 °F 82% 29.77 in 10.0 mi ESE 18.4 mph - 0.01 in Rain Light Rain
9:27 PM 73.4 °F - 66.2 °F 78% 29.88 in 10.0 mi East 9.2 mph - N/A   Partly Cloudy
9:46 PM 73.4 °F - 66.2 °F 78% 29.87 in 10.0 mi East 4.6 mph - N/A   Light Drizzle
9:55 PM 73.4 °F - 66.2 °F 78% 29.87 in 10.0 mi ENE 5.8 mph - N/A   Scattered Clouds
9:58 PM 72.9 °F - 66.0 °F 79% 29.75 in 10.0 mi ENE 5.8 mph - 0.02 in   Scattered Clouds
10:58 PM 72.5 °F - 65.5 °F 79% 29.76 in 10.0 mi ESE 10.4 mph - N/A   Mostly Cloudy
11:58 PM 72.1 °F - 66.4 °F 82% 29.78 in 10.0 mi SSE 10.4 mph - N/A   Mostly Cloudy